RH
52 47 46 55 57 64 58 34 28 40 33 26 25 30 67 64 67 65 78 69 67 57 51 57 60 67 77 79 77 68 52 54 90 54 34 26 14 14 18 27 56 83 50 35 34 25 24 24 23
52 64 58 56 69 65 44 29 26 42 36 22 29 45 63 69 60 79 76 70 52 48 56 61 66 76 78 75 70 51 45 62 68 52 43 26 15 15 28 30 27 26 33 32 27 24 26 25 24
62 66 56 68 64 64 47 24 23 26 24 22 30 42 66 71 62 66 70 77 50 51 61 70 77 77 79 67 48 35 44 67 75 70 50 32 19 15 19 26 28 29 30 27 24 25 24 25 25
73 68 57 58 49 46 36 30 22 28 24 27 28 71 66 70 73 80 78 73 55 56 66 78 80 80 77 66 41 32 42 57 72 78 50 33 23 20 17 18 21 23 23 22 24 25 25 26 26
74 62 80 66 53 36 26 26 25 24 26 30 26 68 63 77 69 74 75 76 52 59 72 80 83 81 81 66 40 30 40 48 67 79 58 41 26 22 21 19 19 20 21 22 24 25 26 27 27
71 64 67 67 52 37 35 34 28 25 23 30 38 50 70 67 71 68 78 72 66 76 77 84 80 75 76 67 37 28 36 47 67 82 71 56 36 24 23 22 21 22 22 23 25 26 27 28 28
81 84 78 52 45 39 45 27 45 45 40 56 47 68 75 56 66 68 76 71 74 84 78 72 75 72 74 58 44 26 36 46 71 86 74 37 33 28 25 24 24 24 24 24 25 26 28 29 29
68 84 65 61 43 46 42 34 40 42 54 49 51 88 86 70 71 67 76 80 78 85 80 68 81 73 72 65 54 30 42 49 58 79 53 32 30 28 24 25 25 24 24 25 25 26 28 29 31
69 88 83 61 51 48 42 43 40 44 49 52 59 72 57 58 53 83 74 78 81 80 78 75 78 74 75 69 66 39 30 64 76 81 60 33 26 28 28 25 26 28 27 27 27 28 29 30 31
81 84 73 52 52 47 43 36 38 46 51 83 90 74 80 61 46 49 74 76 82 80 82 83 87 86 80 63 51 59 35 28 49 57 38 32 42 31 28 28 25 24 28 30 31 33 34 34 34
72 87 66 65 58 43 46 44 41 50 56 52 81 79 76 69 59 48 64 77 74 82 81 82 89 88 84 82 64 53 59 41 32 24 24 45 44 41 31 30 28 26 25 27 33 36 40 44 42
93 66 58 63 59 52 52 45 53 48 50 49 60 68 78 76 62 66 61 72 86 75 78 79 90 84 88 84 80 70 69 58 58 62 47 55 55 50 28 31 36 32 33 35 39 38 43 56 64
80 88 69 62 69 64 52 54 54 51 46 47 60 66 89 80 79 65 67 65 72 80 78 73 85 86 89 92 88 89 77 78 89 83 83 71 66 43 35 35 42 39 36 39 47 52 67 71 81
86 86 89 69 87 73 66 60 50 52 46 44 48 51 78 83 87 76 74 73 74 79 81 77 78 87 94 84 80 83 84 88 90 90 86 77 65 59 48 46 51 48 44 47 54 67 80 90 87
85 89 87 95 91 89 64 67 60 48 46 46 44 46 45 61 81 82 76 81 81 75 84 80 79 85 83 79 80 83 83 87 86 87 86 79 70 62 56 53 65 72 63 61 66 75 81 85 84
86 92 94 80 84 74 60 71 55 47 46 47 46 45 45 44 55 80 83 79 79 82 78 81 81 81 83 84 83 86 89 86 84 85 87 80 70 64 64 66 77 81 81 81 83 83 84 90 94
84 99 94 81 88 84 61 66 51 43 44 45 46 44 43 45 43 44 64 78 81 80 80 79 81 86 86 85 84 82 89 86 84 87 87 86 85 64 70 74 82 90 93 95 96 96 96 92 89
94 95 87 81 86 74 80 65 50 39 40 40 43 42 42 42 43 41 40 55 73 83 90 90 89 88 87 87 86 88 92 89 89 88 86 93 91 82 74 80 89 97 97 96 95 94 92 94 87
65 72 70 74 72 92 82 65 58 47 41 42 42 42 39 41 41 42 39 40 54 66 72 80 93 89 94 91 89 84 80 90 87 84 90 91 93 96 97 98 97 95 97 96 97 96 94 90 89
62 66 64 57 59 78 70 68 60 54 49 42 41 43 43 40 37 40 42 41 45 48 59 68 74 73 85 86 82 83 80 79 87 92 92 93 95 98 97 98 98 98 97 98 98 98 96 94 90
66 65 62 67 67 68 65 77 72 56 51 47 45 41 39 40 40 39 41 40 38 43 52 58 64 66 72 81 88 94 96 94 92 92 90 92 95 99 97 98 100 99 97 96 97 95 95 95 85
61 51 57 68 86 92 70 86 75 61 63 56 48 44 39 36 35 40 39 41 40 38 38 59 59 65 68 73 85 93 86 75 76 89 89 99 99 92 86 87 88 95 84 61 44 39 36 42 42
72 46 63 77 71 77 80 79 57 66 72 61 50 44 39 35 34 38 40 38 39 39 38 40 64 61 63 66 71 70 68 71 78 79 85 84 90 85 80 74 48 38 34 30 29 30 30 35 39
50 77 80 69 66 78 74 70 58 62 58 49 43 40 36 34 34 34 35 41 42 38 36 37 44 71 67 66 69 66 68 62 63 70 75 73 79 82 47 33 30 29 29 29 29 31 34 36 42
52 63 98 96 86 78 48 54 51 34 31 31 31 28 30 32 34 35 35 42 44 40 35 34 34 35 59 68 70 67 69 62 57 64 76 87 64 36 30 29 30 30 31 32 34 37 38 40 44
52 53 81 85 93 74 47 59 44 31 29 28 26 26 26 26 28 32 44 41 43 44 40 34 33 32 32 38 50 60 68 78 78 58 46 43 36 29 33 31 30 33 37 41 43 43 44 45 52
54 75 46 67 54 81 59 43 34 30 32 31 33 32 32 29 30 30 32 48 46 44 45 46 40 39 36 35 34 35 39 46 49 41 34 36 37 35 35 40 39 42 46 49 51 50 48 50 64
54 43 67 85 63 58 63 44 46 39 46 43 41 36 34 32 31 31 31 44 50 48 48 49 48 42 40 42 40 34 33 37 37 34 34 36 38 40 39 44 44 48 49 53 57 57 57 59 83
66 67 60 64 76 84 58 48 31 40 42 45 38 35 36 35 33 33 32 32 32 43 49 50 51 49 43 46 48 44 42 43 41 40 38 39 39 38 40 43 47 51 51 56 68 68 71 76 84
65 60 54 82 70 73 74 53 32 39 40 36 34 33 37 38 37 36 36 36 32 37 46 52 58 56 52 53 53 52 48 49 48 50 52 50 48 46 50 46 48 49 57 62 73 80 77 85 96
Wind_Speed
16 9 9 7 2 3 4 7 5 12 9 7 8 9 9 16 2 4 22 20 21 27 26 23 20 19 16 14 12 13 16 20 18 14 13 13 15 15 15 16 16 14 12 14 16 17 19 19 20
14 11 7 3 3 2 4 10 5 17 29 10 12 18 8 3 9 19 23 15 23 28 27 25 22 20 17 14 13 15 18 20 17 14 15 16 17 17 17 17 16 16 18 18 18 18 18 18 19
18 14 6 4 4 5 5 7 16 11 18 19 5 11 4 5 10 7 17 19 26 28 27 25 22 20 17 15 15 16 18 19 18 15 15 16 17 18 19 19 19 18 18 18 18 17 18 17 17
17 13 6 3 15 9 6 6 10 11 4 26 5 7 7 8 5 20 19 17 26 27 26 25 22 19 17 15 15 17 18 19 18 16 15 16 16 18 18 19 18 18 18 17 16 16 16 15 15
20 6 3 4 7 6 2 10 4 4 10 17 21 9 11 9 20 24 17 13 22 26 25 24 21 19 17 16 15 16 19 20 18 17 14 14 16 17 17 17 17 17 16 15 14 13 13 12 11
14 7 3 6 11 10 3 6 5 2 12 16 15 14 6 12 21 24 19 12 14 22 24 24 19 18 16 15 15 16 18 19 20 17 12 11 13 15 15 15 15 14 13 12 11 10 9 9 9
10 3 5 6 4 5 6 13 5 7 5 7 14 6 9 12 15 20 21 15 14 16 21 22 20 18 17 16 14 15 18 18 19 17 11 13 12 12 11 12 12 11 10 9 8 7 6 6 6
19 2 4 3 9 4 12 23 2 6 4 10 9 6 6 23 7 15 12 18 18 16 15 23 22 19 18 16 13 14 17 17 17 16 14 12 11 10 10 9 9 8 7 6 5 4 4 3 4
21 5 6 5 4 7 14 6 4 5 14 14 7 12 19 27 22 24 16 20 18 14 15 22 22 20 18 17 14 13 15 16 17 15 11 7 8 8 8 7 6 6 5 4 3 2 2 1 1
8 6 7 2 1 10 15 12 8 5 15 10 18 16 24 30 29 20 17 22 21 17 13 18 16 18 19 17 16 13 13 14 14 12 9 7 8 7 6 6 6 5 4 3 2 1 1 1 2
14 7 3 2 4 16 14 5 7 13 4 8 16 16 21 31 35 31 24 20 21 18 18 16 17 13 15 16 14 12 11 12 12 10 10 9 6 3 3 3 4 5 5 4 3 2 2 2 5
5 13 16 1 2 6 6 10 5 11 10 16 11 12 20 26 31 31 32 28 19 21 19 16 18 18 14 13 11 10 9 13 12 10 10 10 7 7 6 5 4 3 4 3 4 2 4 4 5
8 4 17 13 3 6 11 8 9 19 18 18 14 10 20 24 27 28 27 25 23 22 22 19 23 15 20 15 11 9 8 12 5 8 7 9 11 9 9 7 5 4 4 3 4 3 4 6 7
9 11 6 18 11 6 6 5 6 13 15 15 15 13 14 19 21 23 29 29 23 25 23 19 24 18 17 13 10 12 12 11 9 13 10 11 11 8 9 8 6 5 5 4 5 6 6 6 8
16 10 6 10 10 4 7 3 1 9 14 13 14 12 10 10 15 20 26 30 26 25 23 23 22 23 21 18 16 15 15 15 14 13 12 10 13 9 9 9 7 6 7 7 8 8 9 11 11
7 1 5 5 5 3 6 9 5 8 5 7 10 7 10 8 7 12 17 26 25 23 26 24 24 26 26 24 21 19 17 18 16 16 15 12 11 12 10 9 9 8 7 7 7 9 11 10 10
2 3 3 4 3 4 2 2 10 14 16 16 12 10 9 13 10 8 10 16 25 26 26 28 27 26 24 22 21 21 18 19 17 18 16 13 10 12 12 10 9 9 8 9 9 9 10 12 14
8 7 5 7 1 3 3 6 4 19 19 21 21 20 16 13 16 12 10 12 18 23 22 22 23 23 21 21 21 20 20 20 20 22 17 13 11 10 12 11 10 9 11 12 13 15 14 14 17
10 9 8 5 8 5 14 12 10 12 17 19 19 24 29 22 15 18 14 12 15 20 21 22 24 23 24 25 24 21 23 27 22 19 15 14 13 11 12 12 11 13 15 15 16 16 16 17 17
10 12 5 7 11 10 9 11 8 9 8 21 22 20 19 26 26 19 22 19 17 15 21 23 25 24 24 24 23 21 18 21 19 19 16 17 17 16 14 15 16 17 16 17 17 18 20 21 21
4 7 7 9 9 6 7 5 7 9 14 18 19 19 19 21 25 29 27 26 20 19 20 23 23 25 24 24 23 24 22 19 20 20 22 22 23 21 19 18 17 18 18 20 21 22 23 23 23
5 13 13 10 7 4 5 3 6 15 10 11 22 20 21 20 14 31 28 30 26 22 19 24 25 25 24 25 26 27 25 22 21 21 23 23 21 18 19 18 19 21 20 20 20 22 22 22 23
7 17 14 12 5 4 2 2 6 6 11 12 18 27 20 17 14 16 32 30 30 25 23 23 27 25 26 25 25 22 22 23 23 22 23 22 21 20 18 17 17 19 19 20 22 22 22 21 21
1 11 9 3 1 2 6 5 5 4 7 5 7 26 25 19 18 15 13 21 30 27 25 25 26 27 29 27 25 23 24 24 25 24 22 21 21 19 17 16 18 19 21 23 23 22 22 22 22
4 7 3 2 3 3 2 3 7 4 4 6 9 10 9 4 20 18 18 17 27 23 21 23 24 25 27 29 29 28 26 26 27 23 18 19 19 18 18 17 19 21 22 23 23 23 22 22 23
1 3 4 4 3 3 1 5 4 3 8 11 11 10 8 6 3 3 15 19 20 20 20 20 21 23 23 23 24 24 23 21 21 19 17 18 21 18 19 19 21 22 23 23 22 23 22 21 21
2 4 3 5 3 4 3 3 4 3 7 14 17 18 15 8 6 4 3 20 22 22 22 23 23 20 20 21 21 19 19 18 18 16 13 15 17 17 17 19 21 22 23 23 23 23 21 21 19
5 3 3 3 3 3 3 3 3 5 8 8 9 11 12 11 9 6 3 3 12 16 19 19 22 22 22 20 18 14 11 14 15 14 15 17 16 17 19 21 23 23 23 23 23 23 21 19 17
5 2 3 4 3 3 2 4 5 10 9 9 6 4 5 7 9 12 9 4 12 18 22 23 23 24 25 23 22 20 19 23 19 15 16 17 19 21 23 24 26 24 24 22 22 21 20 18 18
0 1 1 3 3 1 3 3 3 7 8 13 9 4 2 3 7 10 12 13 11 12 18 21 24 26 27 26 26 23 23 23 23 24 31 28 25 24 25 27 28 26 24 22 22 22 21 19 20
Wind_Direction
226 199 174 153 112 102 215 247 219 223 297 230 40 83 126 46 317 143 147 165 167 157 155 153 149 142 138 138 131 124 123 126 121 114 101 94 96 105 119 129 125 114 115 103 101 99 99 93 93
200 171 169 177 138 179 240 256 264 162 237 96 61 30 73 42 75 129 150 169 159 154 152 151 148 144 144 141 134 127 130 132 120 111 101 96 97 102 107 111 112 110 103 106 102 99 98 95 94
196 180 185 175 168 200 209 226 215 170 166 77 56 62 59 86 101 134 163 158 157 153 151 147 147 146 144 136 131 128 133 133 122 107 104 98 98 102 106 108 109 107 106 103 101 99 98 97 95
195 187 216 165 202 224 233 319 208 140 87 176 120 76 94 120 91 136 157 155 155 154 152 148 148 148 144 139 134 131 135 135 126 119 113 104 102 103 104 106 108 108 107 105 103 102 100 97 93
202 192 204 199 228 220 163 259 30 80 140 168 166 141 123 137 123 142 160 159 164 152 155 151 154 152 148 143 138 135 140 139 136 129 128 113 110 109 108 108 110 112 112 110 108 105 101 99 95
194 208 167 195 211 230 105 350 41 48 161 160 156 134 72 119 137 133 155 178 173 155 159 156 159 155 152 145 141 141 145 147 143 136 138 127 122 119 118 118 118 118 118 116 113 107 103 98 91
185 159 213 195 199 215 117 265 69 335 87 81 149 100 131 110 130 140 155 180 179 175 171 162 161 158 155 150 145 144 148 149 150 144 147 128 122 118 120 122 123 122 120 117 113 108 98 88 79
206 141 217 209 214 150 161 216 60 45 51 88 130 152 149 123 155 173 159 173 183 184 191 171 164 162 160 157 151 148 151 151 156 154 140 136 130 130 130 132 129 129 128 127 125 121 112 97 85
203 191 209 206 218 171 148 146 178 86 99 77 90 148 163 150 177 190 173 173 187 193 193 178 169 168 167 167 159 152 156 156 159 163 164 147 147 149 149 147 149 147 146 146 141 139 127 105 74
190 196 203 134 23 176 166 158 149 123 107 97 98 122 147 158 178 202 187 181 184 180 178 176 171 172 175 178 175 162 159 169 172 175 178 183 181 150 163 174 173 177 179 181 188 191 246 298 307
175 198 194 106 308 159 146 116 150 134 72 118 138 144 163 172 171 180 195 195 182 183 169 169 182 193 189 186 189 180 175 171 169 177 181 201 199 210 193 202 194 200 209 219 227 251 284 327 326
170 224 222 187 225 126 115 121 62 130 117 103 113 134 159 175 181 181 184 191 203 195 195 192 190 202 200 205 212 202 198 191 188 173 175 202 204 245 231 208 212 216 224 234 242 267 296 329 347
181 216 192 200 139 76 115 99 115 114 123 112 119 108 152 168 184 187 194 193 200 200 200 197 194 209 202 211 216 212 203 194 184 214 207 215 227 216 225 215 216 235 219 256 290 306 319 313 317
135 156 218 187 221 257 105 80 112 148 131 123 125 110 128 173 184 190 193 187 194 208 201 193 203 205 201 210 208 220 206 186 193 207 230 236 225 210 210 213 226 243 251 254 257 265 268 281 283
126 129 327 120 158 240 150 24 184 160 147 142 139 129 120 143 186 205 198 195 195 200 193 186 198 207 220 222 213 213 196 196 210 230 236 235 231 220 206 209 209 222 238 242 250 253 258 265 274
182 83 144 48 356 218 121 213 224 206 173 187 178 160 162 154 167 197 197 207 201 195 201 192 202 208 207 212 216 210 210 203 213 225 241 244 226 226 221 212 225 237 244 250 259 266 267 273 288
114 123 179 9 113 250 189 138 270 228 229 227 222 206 187 184 185 185 210 202 205 205 201 204 209 211 211 218 220 225 212 206 216 217 235 237 234 224 222 221 221 231 248 263 268 271 275 283 283
159 123 166 179 98 212 304 266 255 221 210 227 220 222 224 211 203 202 205 210 207 205 207 208 199 207 207 208 213 218 214 214 214 225 228 234 243 232 225 226 230 234 246 252 258 269 270 279 286
115 115 145 164 152 211 198 225 252 258 226 223 242 232 231 227 216 219 229 212 208 216 214 212 205 208 208 212 215 214 214 214 221 211 212 222 229 230 233 241 228 240 247 256 262 268 274 277 282
157 137 144 127 171 207 180 221 241 251 243 216 226 233 237 235 230 226 220 218 213 216 218 217 219 218 214 213 214 216 211 211 211 207 211 218 218 218 227 235 239 242 248 256 263 266 273 276 280
144 162 169 137 170 201 158 287 263 262 237 250 244 237 231 234 234 231 222 228 223 217 221 220 220 224 220 216 212 215 216 212 210 208 218 225 234 234 236 238 249 254 260 263 264 268 269 272 271
172 203 163 128 145 163 152 236 231 230 238 237 252 250 241 234 270 231 222 227 221 220 225 226 225 225 225 224 220 217 219 219 217 214 223 225 235 245 251 252 259 262 264 269 273 275 277 275 277
248 164 155 142 212 111 109 42 264 152 216 228 237 242 235 223 236 233 227 238 234 221 226 229 227 229 229 231 229 226 229 229 226 220 225 235 243 248 253 253 258 265 272 275 277 278 279 278 277
120 81 49 46 296 61 198 160 290 205 202 196 201 234 230 226 228 232 227 224 223 215 216 221 227 226 226 225 225 223 228 225 237 230 229 238 247 250 251 260 270 277 279 280 280 277 275 275 275
113 97 99 52 42 182 201 118 242 309 95 134 138 98 111 176 239 230 226 214 213 218 222 223 224 227 231 227 223 222 221 228 233 236 239 244 243 252 262 275 281 284 283 281 279 276 275 274 273
117 115 140 133 155 209 336 189 259 167 106 89 79 83 78 60 57 128 217 210 212 221 229 232 229 226 225 227 229 230 229 226 224 221 230 246 251 258 272 280 285 286 283 280 278 276 277 276 274
318 50 183 99 44 79 227 260 28 100 73 80 72 64 52 46 45 30 305 218 220 233 239 240 234 230 229 224 222 226 233 234 231 232 239 245 258 268 277 282 285 285 284 282 279 277 275 273 271
93 186 56 15 107 169 245 187 215 129 118 91 71 70 60 45 32 1 305 250 223 235 244 244 242 238 228 225 228 226 235 240 243 257 259 259 271 283 290 286 288 284 281 280 277 276 274 269 262
14 20 44 115 135 155 139 288 221 159 135 122 135 107 109 76 43 24 5 293 247 247 245 248 246 238 229 228 223 224 239 235 240 259 261 269 278 285 285 292 290 284 280 276 272 270 266 264 259
171 286 86 111 294 44 125 274 350 123 130 143 169 95 95 78 27 354 337 327 300 262 254 252 247 240 235 237 239 233 228 230 235 248 261 268 274 282 284 287 286 282 279 274 268 265 264 255 252